Location: Beutels
(47.8767°N, 9.8584°E)
Time: 17:03:05
(UTC+00:00)

Meteor 2-10 Rocket - Pass Details

Date: 19 May 2025
Orbit: 733 x 881 km, 81.2° (Epoch: 17 June)

Event Time Altitude Azimuth Distance (km) Brightness Sun altitude
Rises 23:00:40 0° 352° (N) 3,442 8.4 -22.0°
Reaches altitude 10° 23:03:12 10° 358° (N) 2,517 7.3 -22.1°
Maximum altitude 23:08:44 47° 72° (ENE) 1,149 4.4 -22.1°
Enters shadow 23:11:11 30° 127° (SE) 1,520 4.7 -22.1°
